Location: Unspecified
(17.6330°N, 0.0000°E)
Time: 14:05:46
(UTC+00:00)

Vanguard 2 - Visible Passes

Search period start: 24 June 2019 00:00
Search period end: 04 July 2019 00:00
Orbit: 553 x 2939 km, 32.9° (Epoch: 21 June)

Date Brightness Start Highest point End Pass type
(mag) Time Alt. Az. Time Alt. Az. Time Alt. Az.
24 Jun 8.4 04:13:24 17° S 04:15:22 25° SSE 04:18:42 10° E visible
25 Jun 7.4 04:30:27 17° SW 04:33:17 49° SSE 04:37:12 10° ENE visible
26 Jun 6.8 04:47:30 12° WSW 04:51:14 85° NNW 04:55:19 10° ENE visible
27 Jun 9.4 03:03:06 15° ESE 03:03:06 15° ESE 03:04:10 10° E visible
28 Jun 8.3 03:20:05 32° ESE 03:20:05 32° ESE 03:22:49 10° E visible
29 Jun 7.0 03:37:03 71° SSE 03:37:05 71° SSE 03:41:01 10° ENE visible
30 Jun 7.1 03:53:59 46° W 03:55:02 63° NNW 03:58:57 10° NE visible
01 Jul 8.0 04:10:53 23° WNW 04:13:01 36° NNW 04:16:42 10° NE visible
02 Jul 9.8 02:26:21 15° ENE 02:26:21 15° ENE 02:27:07 10° ENE visible
02 Jul 8.7 04:27:45 11° WNW 04:31:05 23° NNW 04:34:19 10° NNE visible
03 Jul 9.1 02:43:11 28° ENE 02:43:11 28° ENE 02:45:07 10° ENE visible
03 Jul 9.2 04:46:31 10° WNW 04:49:16 16° NNW 04:51:49 10° NNE visible
